Hourly Data Report for October 02, 2017

All times are specified in Local Standard Time (LST). Add 1 hour to adjust for Daylight Saving Time where and when it is observed.

MOOSONEE
ONTARIO

51°17'28.000" N
80°36'28.000" W
9.10 m
6075420
71398
YMO

Download Data

Hourly Data (October 2017)
Hourly Data Report for October 2, 2017
Temp Definition
°C
Dew Point Temp Definition
°C
Rel Hum Definition
%
Wind Dir Definition
10's deg

Wind Spd Definition
km/h
Visibility Definition
km
Stn Press Definition
kPa
Hmdx Definition


Wind Chill Definition


Weather Definition


TIME
00:00 Legend Double Dagger 7.5 7.5 100 11 11 16.1 102.43     LegendNANA
01:00 Legend Double Dagger 7.2 7.2 100 9 13 16.1 102.47     LegendNANA
02:00 Legend Double Dagger 7.0 7.0 100 8 13 16.1 102.44     LegendNANA
03:00 Legend Double Dagger 6.7 6.7 100 9 13 16.1 102.42     LegendNANA
04:00 Legend Double Dagger 6.1 6.1 100 10 15 16.1 102.43     LegendNANA
05:00 Legend Double Dagger 5.8 5.8 100 11 8 16.1 102.44     LegendNANA
06:00 Legend Double Dagger 5.5 5.5 100 11 11 16.1 102.43     LegendNANA
07:00 Legend Double Dagger 6.2 6.2 100 11 9 16.1 102.42     LegendNANA
08:00 Legend Double Dagger 7.9 7.4 97 12 9 16.1 102.42     LegendNANA
09:00 Legend Double Dagger 10.8 8.8 88 12 11 16.1 102.37     LegendNANA
10:00 Legend Double Dagger 14.3 9.9 74 12 5 16.1 102.33     LegendNANA
11:00 Legend Double Dagger 16.9 11.0 68 16 11 16.1 102.32     LegendNANA
12:00 Legend Double Dagger 16.8 10.7 67 19 11 16.1 102.32     LegendNANA
13:00 Legend Double Dagger 18.3 9.8 57 17 13 16.1 102.23     LegendNANA
14:00 Legend Double Dagger 18.7 8.8 52 17 24 16.1 102.12     LegendNANA
15:00 Legend Double Dagger 19.1 7.5 47 18 22 16.1 102.05     LegendNANA
16:00 Legend Double Dagger 18.5 5.2 41 20 18 16.1 102.07     LegendNANA
17:00 Legend Double Dagger 17.3 5.7 46 19 15 16.1 102.04     LegendNANA
18:00 Legend Double Dagger 16.8 6.5 50 19 13 16.1 102.06     LegendNANA
19:00 Legend Double Dagger 16.6 7.4 54 19 18 16.1 102.03     LegendNANA
20:00 Legend Double Dagger 15.7 8.5 62 19 13 16.1 102.01     LegendNANA
21:00 Legend Double Dagger 16.0 8.8 62 18 15 16.1 101.94     LegendNANA
22:00 Legend Double Dagger 16.3 8.7 61 18 18 16.1 101.85     LegendNANA
23:00 Legend Double Dagger 16.3 9.1 62 19 17 16.1 101.81     LegendNANA

Notes on Data Quality.

Legend

  • E = Estimated
  • M = Missing
  • NA = Not Available
  • ‡ = Partner data that is not subject to review by the National Climate Archives
Date modified: